Linden, NJ

1:57 PM EDT on September 28, 2016 (GMT -0400)
Linden

Weather History for KLDJ - June, 2014

Change the Weather History Date:

Thursday, June 19, 2014

  Actual Average (KEWR) Record (KEWR)
Temperature  
Mean Temperature 76 °F 74 °F  
Max Temperature 82 °F 83 °F 102 °F (1993)
Min Temperature 70 °F 65 °F 53 °F (1954)
Degree Days  
Heating Degree Days 0 0  
Month to date heating degree days 15  
Since 1 June heating degree days 15  
Since 1 July heating degree days 4870  
Cooling Degree Days 11 9  
Month to date cooling degree days 126  
Year to date cooling degree days 202  
Since 1 June cooling degree days 126  
Growing Degree Days 26 (Base 50)    
Moisture  
Dew Point 65 °F    
Average Humidity 71    
Maximum Humidity 88    
Minimum Humidity 48    
Precipitation  
Precipitation 0.06 in 0.12 in 2.08 in (1934)
Month to date precipitation 2.65  
Year to date precipitation 21.54  
Snow  
Snow 0.00 in 0.00 in T in (1952)
Month to date snowfall 0.0  
Since 1 July snowfall 28.5  
Snow Depth -    
Sea Level Pressure  
Sea Level Pressure 29.99 in    
Wind  
Wind Speed 4 mph (NW)    
Max Wind Speed 12 mph    
Max Gust Speed 16 mph    
Visibility 10 miles    
Events Rain , Thunderstorm    
T = Trace of Precipitation, MM = Missing Value Source: NWS Daily Summary

Daily Weather History Graph

Daily Weather History Graph

Search for Another Location

Airport or City:

Trip Planner

Search our weather history database for the weather conditions in past years. The results will help you decide how hot, cold, wet, or windy it might be!

Date:

Astronomy

Jun. 19, 2014 Rise Set
Actual Time 5:25 AM EDT 8:30 PM EDT
Civil Twilight 4:52 AM EDT 9:04 PM EDT
Nautical Twilight 4:10 AM EDT 9:46 PM EDT
Astronomical Twilight 3:19 AM EDT 10:36 PM EDT
Moon 12:31 AM EDT (6/19) 12:55 PM EDT (6/19)
Length of Visible Light 16h 11m
Length of Day
15h 04m
Waning Gibbous, 51% of the Moon is Illuminated
Jun 19
Waning Gibbous
Jun 19
Last Quarter
Jun 27
New
Jul 5
First Quarter
Jul 12
Full

Hourly Weather History & Observations

Time (EDT) Temp. Heat Index Dew Point Humidity Pressure Visibility Wind Dir Wind Speed Gust Speed Precip Events Conditions
12:15 AM 82.0 °F 82.7 °F 61.2 °F 49% 29.97 in 10.0 mi North 3.5 mph - N/A   Clear
12:35 AM 81.7 °F 82.4 °F 61.2 °F 50% 29.97 in 10.0 mi North 3.5 mph - N/A   Clear
12:55 AM 81.9 °F 82.3 °F 60.6 °F 48% 29.97 in 10.0 mi Calm Calm - N/A   Clear
1:15 AM 80.8 °F 81.6 °F 61.3 °F 51% 29.97 in 10.0 mi Calm Calm - N/A   Clear
1:35 AM 80.1 °F 81.1 °F 61.7 °F 53% 29.97 in 10.0 mi Calm Calm - N/A   Clear
1:55 AM 79.5 °F - 62.6 °F 56% 29.97 in 10.0 mi Calm Calm - N/A   Clear
2:15 AM 78.4 °F - 62.8 °F 58% 29.96 in 10.0 mi Calm Calm - N/A   Clear
2:35 AM 78.8 °F - 63.3 °F 59% 29.96 in 10.0 mi NE 3.5 mph - N/A   Clear
2:55 AM 79.2 °F - 63.3 °F 58% 29.96 in 10.0 mi Calm Calm - N/A   Clear
3:15 AM 79.3 °F - 63.1 °F 57% 29.96 in 10.0 mi East 5.8 mph - N/A   Clear
3:35 AM 79.5 °F - 63.3 °F 58% 29.96 in 10.0 mi Calm Calm - N/A   Mostly Cloudy
4:15 AM 76.5 °F - 67.3 °F 73% 29.97 in 5.0 mi SSW 4.6 mph - 0.01 in Rain , Thunderstorm Rain
4:35 AM 73.2 °F - 67.5 °F 82% 29.97 in 7.0 mi South 4.6 mph - 0.06 in Rain , Thunderstorm Light Thunderstorms and Rain
4:55 AM 73.4 °F - 67.3 °F 81% 29.95 in 7.0 mi SSW 3.5 mph - 0.06 in   Scattered Clouds
5:15 AM 73.4 °F - 67.8 °F 83% 29.94 in 10.0 mi Calm Calm - N/A   Clear
5:35 AM 72.7 °F - 68.2 °F 86% 29.96 in 10.0 mi NE 3.5 mph - N/A   Clear
5:55 AM 72.7 °F - 68.5 °F 87% 29.96 in 10.0 mi Calm Calm - N/A   Scattered Clouds
6:15 AM 73.6 °F - 68.2 °F 83% 29.97 in 10.0 mi NE 3.5 mph - N/A   Mostly Cloudy
6:35 AM 74.3 °F - 67.6 °F 80% 29.98 in 10.0 mi NNE 4.6 mph - N/A   Mostly Cloudy
6:55 AM 74.3 °F - 65.3 °F 73% 29.98 in 10.0 mi NE 4.6 mph - N/A   Scattered Clouds
7:15 AM 74.3 °F - 64.6 °F 72% 29.99 in 10.0 mi NNE 6.9 mph - N/A   Scattered Clouds
7:35 AM 73.8 °F - 63.3 °F 70% 30.00 in 10.0 mi NNE 10.4 mph - N/A   Mostly Cloudy
7:55 AM 73.2 °F - 62.2 °F 68% 30.00 in 10.0 mi NE 10.4 mph - N/A   Overcast
8:15 AM 73.0 °F - 62.4 °F 69% 30.01 in 10.0 mi NNE 11.5 mph 16.1 mph N/A   Overcast
8:35 AM 72.7 °F - 62.6 °F 71% 30.01 in 10.0 mi NNE 8.1 mph - N/A   Overcast
8:55 AM 72.5 °F - 63.0 °F 72% 30.01 in 10.0 mi NE 9.2 mph - N/A   Overcast
9:15 AM 72.7 °F - 63.3 °F 72% 30.02 in 10.0 mi ENE 9.2 mph - N/A   Overcast
9:35 AM 72.0 °F - 62.4 °F 72% 30.02 in 10.0 mi NNE 8.1 mph - N/A   Overcast
10:15 AM 72.9 °F - 62.8 °F 71% 30.02 in 10.0 mi NE 9.2 mph - N/A   Overcast
10:35 AM 72.1 °F - 62.6 °F 72% 30.02 in 10.0 mi NNE 5.8 mph - N/A   Overcast
10:55 AM 73.4 °F - 63.5 °F 71% 30.02 in 10.0 mi NE 5.8 mph - N/A   Overcast
11:35 AM 75.4 °F - 64.4 °F 69% 30.03 in 10.0 mi NNW 5.8 mph - N/A   Mostly Cloudy
12:15 PM 77.0 °F - 63.7 °F 63% 30.03 in 10.0 mi NNW 8.1 mph - N/A   Mostly Cloudy
12:35 PM 76.8 °F - 63.0 °F 62% 30.03 in 10.0 mi North 6.9 mph - N/A   Scattered Clouds
12:55 PM 76.3 °F - 65.5 °F 69% 30.03 in 10.0 mi North 6.9 mph - N/A Rain Rain
1:15 PM 76.8 °F - 64.4 °F 65% 30.03 in 10.0 mi NE 4.6 mph - N/A   Scattered Clouds
1:35 PM 76.1 °F - 64.2 °F 67% 30.02 in 10.0 mi NNE 5.8 mph - N/A Rain Light Rain
1:55 PM 75.6 °F - 64.0 °F 67% 30.01 in 10.0 mi Calm Calm - N/A   Light Drizzle
2:15 PM 75.9 °F - 65.1 °F 69% 30.01 in 10.0 mi WNW 3.5 mph - N/A Rain Light Rain
2:35 PM 74.8 °F - 65.5 °F 73% 30.02 in 10.0 mi WNW 5.8 mph - N/A Rain Light Rain
2:55 PM 74.5 °F - 67.8 °F 80% 30.02 in 10.0 mi West 6.9 mph - N/A Rain Rain
3:15 PM 73.8 °F - 67.5 °F 81% 30.03 in 10.0 mi WNW 9.2 mph - N/A   Light Drizzle
3:35 PM 73.6 °F - 67.5 °F 81% 30.02 in 10.0 mi West 6.9 mph - N/A   Light Drizzle
3:55 PM 74.5 °F - 67.6 °F 79% 30.01 in 10.0 mi West 5.8 mph - N/A   Clear
4:15 PM 75.2 °F - 67.3 °F 76% 30.01 in 10.0 mi WNW 9.2 mph - N/A   Clear
4:35 PM 76.1 °F - 67.1 °F 74% 30.01 in 10.0 mi WNW 9.2 mph - N/A   Scattered Clouds
4:55 PM 76.5 °F - 66.9 °F 72% 30.01 in 10.0 mi West 6.9 mph - N/A   Scattered Clouds
5:15 PM 76.5 °F - 66.7 °F 72% 30.00 in 10.0 mi West 8.1 mph - N/A   Scattered Clouds
5:35 PM 76.6 °F - 66.6 °F 71% 30.00 in 10.0 mi West 4.6 mph - N/A   Scattered Clouds
5:55 PM 77.9 °F - 65.7 °F 66% 29.99 in 10.0 mi West 8.1 mph - N/A   Scattered Clouds
6:15 PM 78.1 °F - 65.3 °F 65% 29.99 in 10.0 mi WNW 8.1 mph - N/A   Scattered Clouds
6:35 PM 77.5 °F - 66.2 °F 68% 29.98 in 10.0 mi WNW 5.8 mph - N/A   Scattered Clouds
6:55 PM 77.9 °F - 66.0 °F 67% 29.98 in 10.0 mi West 4.6 mph - N/A   Scattered Clouds
7:15 PM 77.2 °F - 66.2 °F 69% 29.98 in 10.0 mi West 6.9 mph - N/A   Clear
7:35 PM 77.2 °F - 66.4 °F 69% 29.98 in 10.0 mi West 3.5 mph - N/A   Clear
7:55 PM 76.6 °F - 66.4 °F 70% 29.99 in 10.0 mi West 4.6 mph - N/A   Clear
8:15 PM 76.3 °F - 66.6 °F 72% 29.99 in 10.0 mi West 5.8 mph - N/A   Clear
8:35 PM 75.7 °F - 66.9 °F 74% 30.00 in 10.0 mi West 6.9 mph - N/A   Clear
9:15 PM 74.7 °F - 66.9 °F 77% 30.00 in 10.0 mi West 4.6 mph - N/A   Clear
9:35 PM 74.3 °F - 67.1 °F 78% 30.00 in 10.0 mi West 4.6 mph - N/A   Clear
9:55 PM 73.8 °F - 66.9 °F 79% 30.00 in 10.0 mi West 8.1 mph - N/A   Clear
10:15 PM 73.2 °F - 66.7 °F 80% 30.00 in 10.0 mi West 5.8 mph - N/A   Clear
10:35 PM 72.5 °F - 66.7 °F 82% 30.00 in 10.0 mi West 5.8 mph - N/A   Clear
10:55 PM 71.8 °F - 66.6 °F 84% 30.00 in 10.0 mi WNW 6.9 mph - N/A   Clear
11:15 PM 70.9 °F - 66.4 °F 86% 30.00 in 10.0 mi WNW 6.9 mph - N/A   Clear
11:35 PM 70.2 °F - 66.4 °F 88% 30.00 in 10.0 mi WNW 5.8 mph - N/A   Clear
11:55 PM 70.0 °F - 66.2 °F 88% 30.00 in 10.0 mi NW 6.9 mph - N/A   Clear